Preview of NWS' New Version of Forecast
This preview is not operational and should not be used for support decisions.
Latest weather observations around

Los Angeles, Los Angeles International Airport (KLAX)

Using English Units (Switch to International System of Units)
Date/ Time (PST) Wind (mph) Vis. (mi) Weather Sky Cond. Temp (°F) Rel. Humidity Wind Chill (°F) Heat Index (°F) Pressure Precip. (in)
Air Dwpt 6 hour Altimeter (inHg) Sea level (inHg) 1 hr 3 hr 6 hr
Max Min
Jan 18 12:08 WSW 7 8 Mostly Cloudy FEW016 BKN026 BKN160 63 54     72%     30.23        
Jan 18 11:53 Calm 7 Mostly Cloudy FEW014 SCT027 BKN160 64 53     67%     30.24 30.23      
Jan 18 11:15 Calm 6 Fog/Mist FEW011 SCT020 BKN160 62 54     75%     30.26        
Jan 18 10:53 Calm 6 Fog/Mist SCT011 BKN020 BKN160 61 54     78%     30.27 30.27      
Jan 18 10:00 ESE 6 6 Fog/Mist SCT011 BKN018 BKN160 60 55     83%     30.27        
Jan 18 09:53 ESE 3 5 Fog/Mist FEW009 SCT019 BKN160 59 55     87%     30.27 30.27      
Jan 18 09:05 E 6 5 Fog/Mist FEW009 SCT020 BKN140 BKN180 59 55     87%     30.26        
Jan 18 08:53 NE 6 5 Fog/Mist FEW007 BKN020 BKN140 58 54     87%     30.27 30.26      
Jan 18 08:00 ENE 7 5 Fog/Mist SCT005 BKN019 BKN140 56 54     93%     30.25        
Jan 18 07:53 E 5 5 Fog/Mist FEW005 SCT040 SCT120 BKN160 55 54     96%     30.24 30.24      
Jan 18 06:53 Calm 5 Fog/Mist SCT005 BKN040 BKN120 BKN160 55 54     96%     30.24 30.23      
Jan 18 06:47 NE 5 5 Fog/Mist SCT005 BKN040 BKN120 BKN160 55 54     96%     30.23        
Jan 18 06:29 3 3 Fog/Mist OVC005 55 54     96%     30.23        
Jan 18 06:19 6 3 Patchy Fog and Fog/Mist OVC003 55 55     100%     30.23        
Jan 18 05:53 NE 6 0.25 Fog VV002 55 54     96%     30.21 30.2      
Jan 18 05:11 NE 6 0.25 Fog VV003 54 53     97%     30.21        
Jan 18 05:04 5 1.5 Patchy Fog and Fog/Mist SKC BKN004 BKN012 54 53     97%     30.21        
Jan 18 04:53 NE 7 3 Patchy Fog and Fog/Mist SKC FEW005 SCT014 SCT220 55 54     96%     30.21 30.2      
Jan 18 04:44 SE 6 3 Patchy Fog and Fog/Mist SKC FEW005 SCT014 SCT220 55 53     93%     30.21        
Jan 18 03:53 ENE 3 8 Partly Cloudy FEW012 FEW035 SCT220 56 54     93%     30.22 30.21      
Jan 18 02:53 W 7 8 Mostly Cloudy FEW010 SCT022 BKN220 57 55     93%     30.22 30.22      
Jan 18 01:53 WSW 8 9 Mostly Cloudy FEW010 SCT025 BKN220 BKN280 58 56     93%     30.2 30.19      
Jan 18 01:47 W 8 9 Mostly Cloudy FEW010 SCT025 BKN220 BKN280 58 56     93%     30.19        
Jan 18 00:59 W 7 9 Cloudy FEW012 OVC020 59 56     90%     30.2        
Jan 18 00:53 W 9 8 Cloudy BKN008 OVC026 59 56     90%     30.2 30.2      
Jan 17 23:53 WNW 6 10 Mostly Cloudy BKN008 BKN012 59 56     90%     30.21 30.2      
Jan 17 22:53 WSW 8 10 Mostly Cloudy BKN007 BKN012 59 56     90%     30.21 30.2      
Jan 17 21:53 W 11 10 Cloudy OVC007 59 57     93%     30.21 30.21     0
Jan 17 21:33 W 11 10 Mostly Cloudy BKN007 58 56     93%     30.2        
Jan 17 20:53 W 8 10 Mostly Clear FEW007 FEW060 58 57     97%     30.18 30.18      
Jan 17 19:53 W 10 10 Partly Cloudy FEW010 FEW060 SCT150 58 56     93%     30.2 30.2      
Jan 17 18:53 W 9 10 Cloudy FEW010 OVC120 59 56     90%     30.2 30.19   0  
Jan 17 17:53 W 11 10 Cloudy FEW010 OVC100 59 56     90%     30.19 30.18 0    
Jan 17 17:04 WSW 7 10 Light Rain SCT008 BKN080 OVC100 59 57     93%     30.15   0    
Jan 17 16:53 W 7 10 Light Rain FEW010 SCT085 OVC100 59 58     96%     30.16 30.16 0    
Jan 17 15:53 WSW 13 10 Cloudy FEW007 SCT022 OVC150 60 58     93%     30.15 30.15     0
Jan 17 15:10 WSW 9 10 Cloudy OVC005 59 59     100%     30.14        
Jan 17 14:53 WSW 9 10 Cloudy SCT005 OVC065 59 59     100%     30.14 30.14      
Jan 17 14:23 W 10 10 Cloudy SKC FEW050 OVC120 60 59     96%     30.13        
Jan 17 13:53 W 11 10 Patchy Fog SKC SCT004 BKN020 OVC160 60 59     96%     30.13 30.13 0    
Jan 17 13:46 W 10 10 Patchy Fog SKC SCT004 BKN020 OVC160 60 59     96%     30.13   0    
Jan 17 13:20 W 10 6 Patchy Fog and Fog/Mist SKC SCT004 OVC009 59 59     100%     30.12   0    
Jan 17 13:04 W 14 2.5 Light Rain and Fog/Mist BKN004 OVC008 60 59     96%     30.14   0    
Jan 17 12:53 W 11 0.75 Rain and Fog/Mist VV004 60 59     96%     30.14 30.14 0 0  
Jan 17 12:47 W 11 0.75 Light Rain and Fog/Mist VV004 60 59     96%     30.14   0    
Jan 17 11:53 SW 13 1.25 Light Rain and Fog/Mist VV004 61 60     97%     30.15 30.14 0    
Jan 17 11:44 SW 15 1.25 Light Rain and Fog/Mist VV004 61 60     97%     30.15   0    
Jan 17 10:53 SW 15 2 Light Rain and Fog/Mist VV004 61 60     97%     30.17 30.16 0    
Jan 17 09:53 SW 21 2 Light Rain and Fog/Mist VV004 61 60     97%     30.16 30.16 0   0
Jan 17 09:31 SSW 17 2 Rain and Fog/Mist VV004 61 60     97%     30.15   0    
Jan 17 08:53 SSW 20 1.25 Rain and Fog/Mist VV004 61 60     97%     30.14 30.13 0    
Jan 17 07:53 SSW 21 1.5 Light Rain and Fog/Mist VV004 61 60     97%     30.1 30.1 0    
Jan 17 07:19 SSW 21 1.25 Light Rain and Fog/Mist BKN003 OVC007 61 60     97%     30.11   0    
Jan 17 06:53 S 15 2.5 Light Rain and Fog/Mist FEW003 OVC007 61 60     97%     30.1 30.1 0 0  
Jan 17 05:53 S 8 2 Light Rain and Fog/Mist SCT004 OVC008 60 59     96%     30.09 30.08 0    
Jan 17 05:40 S 10 2 Light Rain and Fog/Mist SCT004 OVC007 60 59     96%     30.09   0    
Jan 17 05:18 SSE 10 2 Light Rain and Fog/Mist SCT007 OVC010 60 59     96%     30.08   0    
Jan 17 04:53 SSE 8 2 Rain and Fog/Mist BKN007 OVC011 60 59     96%     30.08 30.08 0    
Jan 17 04:24 SSE 10 2.5 Rain and Fog/Mist SCT006 OVC013 60 59     96%     30.09   0    
Jan 17 03:53 SSE 11 3 Rain and Fog/Mist SCT006 BKN021 OVC027 60 59     96%     30.1 30.1 0   0
Jan 17 03:29 SSE 10 5 Rain and Fog/Mist SCT006 BKN020 OVC028 60 59     96%     30.12   0    
Jan 17 02:53 SSE 7 7 Cloudy SCT004 BKN032 OVC045 60 59     96%     30.13 30.12 0    
Jan 17 02:29 SSE 9 7 Cloudy SCT004 BKN032 OVC045 60 59     96%     30.13   0    
Jan 17 02:10 SE 9 4 Light Rain and Fog/Mist SCT004 BKN017 OVC030 60 59     96%     30.14   0    
Jan 17 02:01 SSE 8 3 Light Rain and Fog/Mist BKN004 OVC018 60 59     96%     30.14   0    
Jan 17 01:53 SSE 8 3 Light Rain and Fog/Mist SCT004 BKN016 OVC023 60 59     96%     30.14 30.14 0    
Jan 17 00:53 ESE 7 7 Cloudy SCT006 BKN016 OVC023 60 59     96%     30.15 30.15 0 0  
Jan 17 00:20 SE 6 7 Light Rain SCT005 BKN016 OVC023 60 59     96%     30.17   0    
Jan 16 23:53 Calm 7 Cloudy BKN005 BKN012 OVC017 61 59     93%     30.18 30.17      
Jan 16 23:25 Calm 7 Cloudy BKN013 BKN021 OVC060 60 60     100%     30.19        
Jan 16 22:53 E 5 7 Cloudy FEW008 SCT012 OVC055 60 59     96%     30.18 30.17 0    
Jan 16 22:43 E 6 7 Cloudy FEW008 SCT012 OVC055 60 59     96%     30.17   0    
Jan 16 21:53 S 5 9 Cloudy SCT008 BKN013 OVC070 61 60     97%     30.18 30.17 0   1
Jan 16 21:01 S 9 8 Cloudy OVC008 61 59     93%     30.16   0    
Jan 16 20:53 SSW 11 2.5 Light Rain and Fog/Mist OVC008 61 59     93%     30.16 30.16 0    
Jan 16 20:24 SSW 11 7 Light Rain OVC006 61 59     93%     30.16   0    
Jan 16 19:53 6 3 Light Rain and Fog/Mist OVC004 59 58     96%     30.16 30.16 0    
Jan 16 19:43 ESE 3 2 Light Rain and Fog/Mist OVC006 58 58     100%     30.16   0    
Jan 16 19:33 E 6 1.75 Rain and Fog/Mist BKN006 OVC010 58 58     100%     30.16   0    
Jan 16 19:27 ESE 7 2 Rain and Fog/Mist BKN004 BKN010 OVC014 58 57     97%     30.15   0    
Jan 16 19:16 ESE 9 3 Light Rain and Fog/Mist FEW004 BKN009 OVC016 58 57     97%     30.15   0    
Jan 16 18:53 ESE 10 2.5 Heavy Rain and Fog/Mist BKN004 BKN013 OVC022 58 57     97%     30.15 30.14 0 1  
Jan 16 18:17 ESE 11 3 Heavy Rain and Fog/Mist BKN004 OVC015 57 56     96%     30.14   0    
Jan 16 17:53 ESE 8 1.75 Heavy Rain and Fog/Mist OVC006 57 57     100%     30.15 30.14 0    
Jan 16 17:23 ESE 11 2.5 Heavy Rain and Fog/Mist OVC006 58 57     97%     30.14   0    
Jan 16 16:53 ESE 10 4 Light Rain and Fog/Mist OVC008 59 57     93%     30.13 30.13 0    
Jan 16 16:34 SE 13 4 Light Rain and Fog/Mist OVC006 59 58     96%     30.14   0    
Jan 16 16:13 ESE 11 2 Light Rain and Fog/Mist OVC006 59 58     96%     30.14   0    
Jan 16 15:53 ESE 10 1.75 Fog/Mist OVC006 59 58     96%     30.14 30.14 0   0
Jan 16 15:27 ESE 11 1.75 Fog/Mist OVC006 59 58     96%     30.15   0    
Jan 16 15:09 ESE 10 3 Fog/Mist OVC006 59 58     96%     30.15   0    
Jan 16 14:53 ESE 10 2.5 Light Rain and Fog/Mist OVC006 59 58     96%     30.14 30.14 0    
Jan 16 14:22 ESE 13 2 Light Rain and Fog/Mist OVC007 59 58     96%     30.15   0    
Jan 16 13:53 SE 14 1.5 Light Rain and Fog/Mist OVC005 59 58     96%     30.14 30.14 0    
Jan 16 13:21 ESE 13 1.5 Light Rain and Fog/Mist OVC007 59 58     96%     30.14   0    
Jan 16 12:53 ESE 14 2 Light Rain and Fog/Mist OVC007 59 58     96%     30.14 30.14 0 0  
Jan 16 12:41 ESE 11 2 Light Rain and Fog/Mist OVC007 59 57     93%     30.15   0    
Jan 16 11:53 SE 9 1.5 Light Rain and Fog/Mist BKN007 OVC013 59 57     93%     30.17 30.17 0    
Jan 16 11:31 SE 10 2 Light Rain and Fog/Mist BKN005 OVC014 59 58     96%     30.18   0    
Jan 16 11:08 SE 13 1.5 Light Rain and Fog/Mist BKN005 OVC010 60 58     93%     30.19   0    
Jan 16 10:53 ESE 10 2 Rain and Fog/Mist BKN007 OVC012 60 58     93%     30.2 30.2 0    
Jan 16 09:53 E 13 2 Fog/Mist BKN005 OVC014 59 57     93%     30.19 30.19     0
Jan 16 08:53 E 10 5 Fog/Mist OVC005 58 56     93%     30.17 30.16      
Jan 16 07:53 ENE 6 5 Fog/Mist BKN007 56 55     97%     30.15 30.15 0    
Jan 16 07:35 E 6 3 Light Rain and Fog/Mist OVC007 56 54     93%     30.15   0    
Jan 16 07:23 E 6 2.5 Light Rain and Fog/Mist OVC007 56 54     93%     30.15   0    
Jan 16 06:53 E 6 8 Cloudy OVC007 56 54     93%     30.14 30.14      
Jan 16 05:53 E 6 9 Mostly Cloudy FEW006 BKN009 BKN035 55 54     96%     30.11 30.11      
Jan 16 05:24 ENE 8 9 Mostly Cloudy FEW006 BKN008 BKN034 54 53     97%     30.1        
Jan 16 04:53 ENE 7 9 Mostly Cloudy FEW006 SCT011 BKN030 BKN200 54 53     97%     30.11 30.11      
Jan 16 04:51 ENE 7 9 Mostly Cloudy FEW006 SCT012 BKN030 BKN200 54 54     100%     30.11        
Jan 16 03:53 ENE 8 9 Mostly Cloudy FEW004 FEW008 BKN027 BKN150 54 53     97%     30.12 30.12 0   0
Jan 16 03:26 ENE 7 5 Fog/Mist SCT007 BKN027 OVC041 54 53     97%     30.13   0    
Jan 16 03:17 E 6 5 Light Rain and Fog/Mist BKN009 BKN027 OVC048 54 53     97%     30.12   0    
Jan 16 03:04 E 6 5 Light Rain and Fog/Mist FEW005 SCT009 BKN018 54 53     97%     30.12   0    
Jan 16 02:53 E 6 6 Light Rain and Fog/Mist FEW020 BKN028 54 53     97%     30.12 30.11 0    
Jan 16 01:53 E 7 6 Light Rain and Fog/Mist FEW020 BKN029 54 53     97%     30.11 30.11 0    
Jan 16 00:59 E 7 9 Light Rain FEW019 BKN034 OVC042 54 52     93%     30.1   0    
Jan 16 00:53 E 7 10 Mostly Cloudy FEW009 BKN017 BKN040 54 52     93%     30.1 30.09 0 0  
Jan 15 23:53 E 10 10 Mostly Cloudy FEW009 BKN019 BKN044 53 52     96%     30.1 30.1 0    
Jan 15 22:53 E 9 9 Cloudy FEW008 BKN015 OVC020 54 52     93%     30.1 30.1 0    
Jan 15 21:53 ENE 10 3 Rain and Fog/Mist FEW009 OVC016 53 51     93%     30.09 30.08 0   0
Jan 15 21:38 ENE 13 2.5 Rain and Fog/Mist FEW009 OVC017 53 51     93%     30.08   0    
Jan 15 21:01 ENE 8 10 Light Rain SCT011 BKN017 OVC023 53 50     89%     30.07   0    
Jan 15 20:53 ENE 11 9 Light Rain BKN011 OVC020 53 50     89%     30.07 30.07 0    
Jan 15 20:39 Calm 10 Cloudy FEW009 BKN015 OVC033 53 51     93%     30.07   0    
Jan 15 19:53 E 13 10 Light Rain BKN015 BKN031 OVC042 52 50     93%     30.05 30.04 0    
Jan 15 19:25 E 17 6 Light Rain and Fog/Mist SCT013 BKN030 OVC041 52 50     93%     30.03   0    
Jan 15 18:53 E 11 5 Rain and Fog/Mist OVC011 53 50     89%     30.03 30.02 0 0  
Jan 15 18:37 E 9 4 Rain and Fog/Mist SCT009 BKN015 OVC026 53 51     93%     30.03   0    
Jan 15 17:53 ENE 13 4 Heavy Rain and Fog/Mist SCT011 OVC019 52 50     93%     30.02 30.02 0    
Jan 15 17:40 ENE 9 5 Light Rain and Fog/Mist FEW010 BKN017 OVC022 52 50     93%     30.02   0    
Jan 15 17:18 ENE 9 2.5 Heavy Rain and Fog/Mist FEW010 BKN015 OVC023 52 50     93%     30.02   0    
Jan 15 16:53 E 11 4 Heavy Rain and Fog/Mist BKN022 OVC029 53 50     89%     30.01 30.01 0    
Jan 15 16:41 ENE 13 7 Rain SCT022 BKN027 OVC075 53 50     89%     30.01   0    
Jan 15 15:53 E 11 9 Rain SCT021 BKN043 OVC055 54 50     86%     30.02 30.02 0   0
Jan 15 14:53 ESE 8 5 Rain OVC046 56 49     77%     30.01 30.01 0    
Jan 15 13:53 SE 10 8 Light Rain FEW010 SCT055 OVC070 58 48     70%     29.99 29.98 0    
Jan 15 12:53 SE 13 8 Light Rain SCT023 OVC055 59 49     69%     30.01 30 0 0  
Jan 15 11:53 E 14 10 Mostly Cloudy SCT025 BKN060 BKN150 59 50     72%     30.03 30.02      
May 15 08:53 SSW 8 8 Mostly Cloudy BKN021 62 52     70%     30.06 30.05      
May 14 11:53 WSW 17 8 Partly Cloudy FEW027 SCT140 SCT180 65 53     65%     30.01 30      
May 14 09:09 6 7 Mostly Cloudy SCT018 BKN140 63 53     70%     29.99        
May 11 17:53 ESE 7 10 Mostly Cloudy BKN025 BKN031 63 52     67%     29.82 29.81      
Jun 12 02:53 E 6 10 Mostly Clear FEW090 FEW220 57 51     81%     29.97 29.96      
Jun 10 23:53 SW 6 10 Clear   63 57     81%     29.87 29.86      
Jun 10 06:53 WSW 6 10 Cloudy BKN020 OVC026 62 58     86%     29.88 29.87      
Jun 10 05:53 WSW 3 10 Mostly Cloudy BKN023 62 57     84%     29.87 29.86      
Jun 09 15:53 WSW 14 10 Partly Cloudy FEW013 SCT100 69 60     73%     29.91 29.9      
Jun 09 12:53 WSW 14 9 Mostly Clear FEW017 FEW120 70 55     59%     29.96 29.95      
Jun 09 00:53 SSW 3 10 Mostly Clear FEW011 61 56     83%     29.94 29.93      
Jun 08 16:53 WSW 21 10 Clear and Windy   67 57     71%     29.95 29.95      
Jun 08 05:53 W 7 4 Clear   61 60     97%     29.99 29.98 0    
Jun 07 15:53 WSW 13 10 Mostly Clear FEW022 68 59     73%     29.94 29.93      
Jun 07 12:53 7 7 Cloudy OVC016 65 59     81%     29.98 29.98      
Jun 07 10:53 WSW 9 6 Haze SCT012 OVC014 63 59     87%     29.97 29.97     0
Jun 07 09:53 WSW 7 5 Fog/Mist BKN013 OVC018 63 59     87%     29.96 29.96